RH
36 33 32 33 35 36 38 39 40 40 41 41 41 42 43 44 44 44 44 42 41 40 39 39 38 38 37 36 35 33 31 28 26 24 23 22 22 21 21 20 20 20 20 21 21 21 21 21 21 20 20 19
32 31 32 34 35 37 39 40 41 41 41 41 42 43 44 44 44 43 43 42 41 40 39 38 37 37 36 35 34 31 29 26 25 24 23 23 23 22 21 20 20 21 21 22 22 22 22 21 20 20 19 19
30 31 33 34 36 39 40 41 41 41 41 42 43 43 44 44 43 43 42 41 40 39 38 37 36 36 35 34 32 29 27 26 24 24 24 24 24 23 22 21 21 22 23 23 23 22 21 20 20 19 19 19
30 32 33 34 36 38 39 40 40 41 42 43 44 44 44 43 42 42 41 40 38 38 36 35 35 34 33 32 30 28 26 25 24 24 25 25 25 24 23 22 23 24 24 24 23 21 20 19 19 18 18 18
30 31 31 32 33 35 36 36 37 38 40 41 43 43 43 43 43 42 42 41 39 38 37 35 34 33 31 30 29 28 27 26 26 27 27 27 26 24 24 24 24 24 24 23 21 20 19 18 18 18 18 18
29 29 29 29 29 30 30 31 33 34 36 37 38 39 40 40 41 41 41 41 40 40 39 38 37 36 34 33 32 31 30 30 30 30 29 28 26 25 24 24 24 24 23 21 20 19 18 18 18 18 18 18
28 27 26 26 26 26 27 29 31 32 33 34 35 37 37 37 37 37 38 37 37 37 38 39 39 39 39 38 37 36 35 34 33 32 30 28 27 26 25 25 25 23 21 20 19 19 19 19 19 19 19 19
27 25 24 23 24 24 26 28 30 31 33 34 35 36 36 36 36 36 36 36 36 36 37 37 38 39 40 40 40 40 39 38 36 33 30 28 27 27 27 26 24 22 21 20 20 19 19 19 19 20 21 21
26 24 22 22 22 22 24 26 28 29 31 33 32 33 32 32 32 32 33 34 35 36 37 38 39 39 39 40 41 41 40 39 36 33 30 29 28 28 27 25 23 21 21 21 20 20 19 20 21 22 22 21
25 23 22 20 20 21 21 23 24 26 28 29 29 29 28 27 26 27 28 30 32 34 35 37 39 40 41 41 41 40 39 37 35 32 30 30 29 29 27 25 23 22 21 21 21 20 21 22 22 22 22 20
25 23 21 19 18 19 20 20 21 22 24 25 26 25 24 23 22 23 25 27 30 32 34 35 37 39 41 42 41 40 38 36 34 32 31 31 30 29 27 24 23 23 22 22 22 22 23 23 23 22 21 21
24 22 21 18 17 17 18 19 18 19 21 22 23 23 22 21 21 22 24 26 29 33 35 36 37 38 41 43 43 41 39 36 35 33 33 32 31 29 26 25 24 23 23 23 24 25 24 23 23 23 22 21
24 22 20 18 15 15 16 17 17 18 18 20 21 21 20 20 21 22 23 26 29 34 37 38 38 40 42 44 44 42 40 37 36 35 34 33 32 29 26 25 25 25 25 26 26 25 24 24 24 24 23 21
24 21 19 17 15 13 14 16 17 17 17 18 19 19 19 20 20 22 24 27 31 36 39 40 40 42 43 45 45 44 42 39 38 37 36 34 32 29 27 27 27 27 27 27 26 25 25 25 25 24 22 21
24 21 18 16 15 13 12 14 16 16 17 18 18 18 19 20 20 22 25 28 33 39 42 42 42 44 46 48 47 46 44 42 40 39 37 35 31 29 29 29 28 28 28 27 26 26 26 25 24 23 22 21
24 21 18 15 14 13 12 13 15 16 17 17 18 18 18 19 20 22 25 30 35 41 44 45 45 47 50 51 51 49 47 44 42 40 38 34 31 30 30 30 29 28 27 27 27 27 27 26 24 23 22 22
26 22 18 15 13 13 12 12 13 16 16 17 18 18 19 19 20 21 25 31 38 44 46 47 48 51 54 54 53 52 49 46 44 41 37 33 31 31 32 31 29 28 29 29 28 28 28 26 24 23 23 22
28 23 18 14 12 12 12 12 13 15 17 17 18 18 19 20 20 21 24 31 39 46 49 49 51 54 57 57 55 53 50 47 43 40 36 33 33 33 33 32 31 30 31 30 30 30 29 27 25 25 24 22
28 23 19 14 12 11 12 11 13 15 17 17 18 19 20 20 20 20 23 30 39 46 50 50 52 56 59 59 57 54 50 46 42 39 36 34 34 34 34 33 33 33 32 32 32 31 29 28 27 26 25 23
26 21 17 14 11 11 11 11 13 16 17 18 18 19 20 20 20 19 22 29 37 45 50 51 52 56 59 59 58 54 50 46 42 39 36 35 35 35 35 35 35 35 34 34 33 32 31 29 28 28 27 26
22 17 14 12 10 10 11 11 13 16 18 18 19 20 20 21 20 19 21 27 35 43 49 52 52 55 59 60 58 55 51 47 43 40 37 36 36 37 37 37 37 36 36 36 35 34 33 31 31 31 30 29
18 14 12 11 10 10 11 11 13 16 18 18 19 20 20 21 20 19 19 25 32 40 48 53 54 54 58 61 60 57 53 48 45 42 39 38 39 40 39 39 38 38 38 37 37 35 34 34 34 34 33 32
15 12 10 10 9 9 11 12 14 17 18 19 19 20 20 21 20 19 19 22 29 37 45 53 56 56 57 60 61 59 55 51 48 45 43 42 42 42 41 41 41 41 40 39 39 39 39 39 38 36 35 35
13 10 9 8 8 9 10 12 14 17 18 19 19 20 20 20 19 20 20 21 27 34 41 50 57 58 57 58 60 60 58 55 51 48 46 45 44 43 43 43 43 43 42 41 41 41 42 41 40 39 39 39
11 9 9 8 8 9 10 11 14 17 19 19 20 20 20 20 19 20 21 21 25 32 37 45 55 59 58 58 60 61 61 59 55 52 50 48 47 46 46 46 45 44 43 42 44 44 44 43 42 42 41 41
9 9 9 8 8 9 10 12 15 17 19 20 20 21 21 20 19 19 21 22 23 29 35 39 50 60 61 60 61 63 63 61 58 55 53 51 50 50 49 49 47 46 45 46 47 48 47 46 45 44 43 42
9 8 9 8 8 9 10 11 15 18 20 21 20 21 22 21 19 19 21 23 23 27 32 36 44 57 65 64 62 63 64 63 61 59 56 54 53 53 51 50 48 47 47 48 48 48 47 46 45 45 43 42
8 9 9 8 8 8 10 11 14 18 19 21 21 21 22 22 19 19 22 24 23 26 30 34 39 51 64 68 64 63 64 65 64 62 59 57 56 55 52 50 49 49 49 50 49 48 47 47 46 45 43 41
8 9 9 9 8 9 10 11 14 17 19 20 21 21 21 22 20 19 24 26 25 26 29 33 36 44 58 68 68 65 65 66 67 65 62 60 59 57 54 53 53 53 52 52 51 50 50 49 47 46 43 41
8 10 10 9 9 9 10 11 14 17 19 20 21 21 21 22 21 21 26 28 25 26 29 33 35 39 51 66 71 69 68 69 70 69 66 64 62 59 57 57 57 56 55 53 53 53 53 51 49 47 45 43
9 10 11 11 10 10 10 12 14 15 18 20 21 22 22 22 22 23 28 29 24 25 30 34 35 37 47 62 71 73 73 73 73 73 71 68 65 63 61 60 59 57 56 56 57 57 56 53 51 49 47 45
Wind_Speed
23 24 24 24 23 23 22 22 22 21 21 21 20 20 20 20 20 21 21 21 21 21 21 21 21 21 21 21 21 21 21 21 21 21 21 21 22 22 22 23 23 24 25 27 28 30 31 33 34 35 36 37
23 23 23 22 21 21 20 20 20 20 20 20 20 20 20 20 20 21 21 21 21 21 21 21 21 21 21 21 21 21 21 21 21 22 22 23 23 23 23 24 24 25 27 28 30 31 33 34 36 37 37 38
22 22 21 20 19 19 19 19 19 19 19 19 20 20 20 20 20 21 21 21 21 21 21 22 22 22 22 22 22 22 22 22 23 23 24 24 24 24 25 25 26 27 28 30 31 33 34 36 37 38 38 39
21 21 20 19 19 19 19 19 19 19 19 20 20 20 20 21 21 21 21 21 22 22 22 22 22 22 23 23 23 23 23 24 24 25 25 25 25 25 25 26 27 28 29 31 33 34 36 37 38 39 39 40
21 19 19 19 19 19 19 19 19 19 20 20 20 20 20 21 21 21 21 22 22 22 22 22 22 22 23 23 23 24 24 25 25 25 26 26 26 25 26 27 28 29 31 33 34 36 37 38 39 40 40 41
19 18 18 19 19 19 19 19 19 19 19 20 20 20 20 21 21 21 22 22 22 22 23 23 23 23 23 24 24 25 25 25 26 26 26 26 25 26 26 27 29 31 32 34 36 37 38 39 40 40 41 42
19 18 19 19 19 19 19 19 19 20 20 20 21 21 21 21 22 22 22 23 23 24 24 24 24 24 25 25 25 25 25 26 26 26 26 25 26 26 27 29 30 32 34 35 37 38 39 40 41 41 42 43
18 18 19 19 19 20 20 20 20 20 20 21 21 22 22 23 23 24 24 24 25 25 25 25 25 26 26 26 26 26 26 26 26 26 26 26 26 27 29 30 32 33 35 36 38 39 40 41 42 43 44 45
18 18 19 19 20 20 20 20 21 21 21 22 22 23 24 24 25 26 26 26 27 27 26 26 26 26 26 26 26 26 26 26 25 25 26 26 27 28 30 31 33 35 36 37 39 40 41 42 42 44 45 47
18 18 19 20 20 21 21 21 22 22 22 22 23 24 25 26 26 27 28 28 28 28 28 27 27 27 26 26 26 25 25 25 25 25 26 27 28 30 31 33 34 36 37 38 39 40 41 42 44 45 47 49
19 19 20 20 21 21 22 22 22 22 23 23 24 24 26 27 27 28 29 29 29 29 29 29 28 27 27 26 26 25 25 25 25 26 27 28 30 31 33 34 35 37 38 39 40 41 42 43 45 47 49 51
19 19 21 21 22 22 22 23 23 24 24 24 24 25 26 27 28 29 30 30 30 30 30 30 29 28 27 26 26 26 26 26 26 27 28 29 31 32 34 35 36 38 39 40 41 42 43 45 47 48 50 52
20 20 21 22 22 23 23 23 24 24 25 25 25 26 27 28 29 29 30 31 31 31 31 30 29 28 27 27 26 26 26 27 27 28 29 31 32 34 35 36 37 38 39 40 42 43 45 46 48 50 52 54
21 22 22 23 23 24 24 24 25 25 26 26 26 27 28 28 29 30 31 31 32 32 32 31 30 28 27 27 26 26 27 27 28 29 30 32 33 35 36 37 38 39 40 41 43 44 46 48 50 52 54 55
22 23 24 24 24 24 25 25 25 25 26 27 27 27 28 29 30 30 31 32 33 33 32 31 30 28 27 26 26 26 27 28 29 30 31 33 34 36 37 38 39 40 41 43 44 46 47 49 52 53 55 57
24 24 25 25 25 25 25 25 25 26 27 27 27 27 28 29 30 31 32 33 34 34 33 32 30 28 27 26 26 26 27 28 29 31 32 34 35 36 38 39 40 41 42 44 45 47 49 51 53 55 56 58
25 26 26 26 26 26 26 25 25 26 27 28 28 28 28 30 31 31 32 33 34 34 34 32 30 28 27 26 26 26 27 28 30 31 33 34 36 37 38 40 41 42 43 45 47 48 50 53 55 56 58 59
27 27 27 27 27 27 26 26 26 26 27 28 28 28 29 30 31 32 32 34 34 35 34 33 31 28 27 26 26 27 28 29 31 32 33 35 36 38 39 41 42 43 45 46 48 50 52 54 56 58 59 60
28 28 28 28 28 27 26 26 26 26 27 28 29 29 29 30 31 32 33 34 34 35 35 34 31 29 27 27 27 28 29 30 31 33 34 36 37 39 40 42 43 45 46 48 50 52 54 56 57 59 60 61
29 29 29 28 28 27 26 26 26 26 26 28 29 30 30 30 31 32 33 34 34 35 35 35 32 30 28 28 28 29 30 31 32 34 35 37 38 40 42 43 44 46 48 50 51 53 55 57 59 60 61 61
29 29 29 28 28 27 26 26 26 26 27 27 29 30 31 31 31 32 33 34 34 35 35 35 34 31 30 29 29 30 31 32 33 35 36 38 39 41 43 44 46 47 49 51 53 55 57 59 60 61 62 62
29 29 29 28 28 27 27 26 26 26 27 28 29 30 32 32 32 32 33 34 34 35 35 35 35 33 32 31 31 31 32 33 35 36 37 39 40 42 43 45 46 48 50 52 54 56 58 59 61 62 63 63
29 29 29 29 28 27 27 27 27 27 27 28 29 31 32 32 32 33 34 34 35 35 36 36 36 35 34 33 33 33 34 35 36 37 38 40 41 43 44 46 47 49 51 53 55 57 59 60 61 63 63 64
29 29 29 29 28 27 27 27 27 27 28 29 30 31 33 33 33 33 34 35 35 35 36 37 37 37 36 35 34 34 35 36 37 38 39 40 42 44 45 46 48 50 52 54 56 58 59 61 62 63 64 64
29 29 29 29 29 28 27 27 27 27 28 29 30 32 33 34 34 34 34 35 36 36 37 38 38 38 37 36 36 35 36 37 37 39 40 41 43 44 46 47 49 51 53 55 57 58 59 61 62 63 63 63
29 30 30 30 29 29 28 28 28 28 29 30 31 32 34 35 35 35 35 36 37 37 38 38 39 39 39 38 38 37 37 37 38 40 41 42 44 45 46 48 50 52 54 55 57 58 59 61 62 62 63 63
30 30 30 30 30 29 29 29 29 29 29 30 31 33 34 36 36 36 36 37 38 38 39 39 40 41 41 40 40 39 39 39 39 41 42 43 44 46 47 49 51 53 54 56 57 58 59 61 61 62 63 64
30 30 31 31 31 31 30 30 30 30 30 31 32 33 35 37 37 37 37 38 38 39 40 40 42 42 43 42 41 41 40 40 41 42 43 44 45 47 48 50 52 53 55 56 57 58 60 61 62 63 64 65
31 31 31 32 32 32 31 31 31 31 31 31 32 34 36 37 38 38 38 39 39 40 41 42 43 44 44 44 43 43 42 42 43 43 44 45 46 48 49 51 52 54 56 57 58 59 60 61 62 63 64 64
31 31 32 33 33 33 32 32 32 32 32 32 33 34 36 38 38 39 39 40 40 41 42 43 44 45 45 45 45 45 45 45 45 45 45 46 47 49 50 52 53 55 56 57 58 59 59 61 62 63 63 63
32 33 34 34 34 34 34 34 34 33 33 33 34 35 37 39 39 40 40 41 41 42 43 44 45 46 46 46 46 46 47 47 46 46 46 47 48 50 51 53 54 55 56 57 57 58 59 60 61 62 62 62
Wind_Direction
310 313 314 314 314 314 316 316 316 315 314 313 313 313 313 312 312 311 310 309 308 307 306 305 304 303 303 302 302 301 301 301 302 302 303 304 304 305 305 306 305 305 305 305 305 306 306 306 307 306 306 305
311 313 314 315 316 318 319 319 320 319 319 318 318 317 317 316 315 313 312 311 310 309 307 306 306 305 304 304 302 301 301 300 301 302 303 305 306 306 306 306 305 305 305 306 307 307 308 308 308 307 306 305
310 312 314 318 320 322 322 323 323 323 322 322 321 319 318 317 316 315 314 312 311 310 309 309 308 306 305 303 301 300 299 299 300 302 304 306 306 306 306 305 305 306 306 307 308 308 309 308 308 307 307 306
309 312 318 322 325 326 325 326 326 325 324 323 322 320 319 319 318 316 315 314 313 312 310 309 307 306 304 302 300 299 299 300 302 304 305 306 305 305 304 304 304 305 306 308 309 309 309 309 309 308 308 307
308 314 321 325 328 328 327 327 325 325 324 323 322 322 322 321 320 318 316 314 313 311 310 308 307 305 304 303 302 302 302 303 304 304 305 304 303 302 301 302 303 306 307 309 310 310 310 310 310 309 308 306
308 316 322 326 328 328 326 325 324 324 323 324 325 325 324 323 321 319 318 316 314 313 311 310 309 307 306 306 305 305 305 305 304 304 302 301 300 299 300 302 305 307 309 310 311 311 311 310 309 308 307 307
308 316 321 325 326 325 324 323 323 324 326 327 328 328 327 326 325 323 322 320 318 315 313 312 311 309 308 307 307 306 305 304 303 301 300 299 299 300 303 306 308 310 310 311 312 312 311 310 309 309 309 308
307 314 319 322 322 321 321 322 323 326 328 329 329 329 329 330 329 328 326 324 321 318 316 314 312 310 309 308 306 305 304 303 301 300 299 300 302 304 307 309 310 311 312 312 312 312 311 311 310 310 309 308
305 312 315 317 318 317 318 320 322 325 327 328 328 329 329 330 331 330 329 326 324 321 319 316 314 312 309 308 306 304 303 302 301 300 301 303 305 308 309 310 311 312 312 312 312 312 312 311 310 309 308 307
302 308 311 312 313 314 315 317 319 322 323 324 325 326 328 329 330 330 329 327 325 323 321 318 316 313 310 308 306 304 302 301 301 301 303 306 308 309 310 310 311 311 312 312 313 313 312 311 309 308 308 308
299 304 306 308 309 310 311 313 315 317 318 320 321 323 326 328 329 329 328 327 325 323 321 318 316 313 311 309 306 304 303 303 303 304 306 308 309 309 309 310 310 311 312 313 313 312 311 310 309 309 309 310
296 300 302 304 306 307 308 309 310 312 314 316 318 321 324 326 327 327 327 326 325 323 320 318 315 313 311 309 307 306 305 305 305 306 307 308 308 308 309 310 311 312 313 313 312 311 310 310 310 311 311 311
293 296 299 301 303 303 304 305 307 309 311 313 316 320 322 324 325 326 326 326 325 323 321 318 315 313 311 309 308 307 306 305 305 306 307 307 308 308 309 310 312 313 313 312 311 311 311 311 312 312 312 311
290 294 296 298 299 300 302 303 304 306 308 311 315 318 321 322 324 325 326 326 325 323 321 318 315 313 311 309 308 307 306 306 306 306 306 306 307 308 310 311 313 313 312 311 311 312 312 313 313 313 312 312
288 291 293 295 296 297 299 301 302 304 307 310 313 316 318 320 322 325 327 327 326 324 322 320 317 314 311 309 308 307 306 305 305 305 305 306 308 309 311 312 312 312 311 312 312 313 313 314 314 313 313 313
287 289 291 292 293 295 297 299 301 302 305 309 312 314 316 318 321 325 327 327 326 325 324 322 319 315 311 309 307 306 305 304 304 304 306 307 309 310 311 311 311 312 312 312 312 313 314 314 314 314 314 314
286 287 289 290 291 292 294 297 299 301 305 308 311 313 314 316 320 325 327 327 326 326 326 324 320 316 312 308 306 304 304 303 304 305 307 308 309 310 310 311 311 312 312 312 313 314 315 315 315 315 315 315
285 286 288 288 289 290 292 295 298 301 304 308 311 312 313 316 320 324 326 327 327 328 328 326 321 316 311 308 305 304 304 304 305 306 307 308 308 309 310 310 311 312 312 313 314 315 315 315 316 316 316 315
284 286 286 287 288 288 290 293 296 300 303 307 310 312 313 316 319 322 325 326 328 329 329 327 322 315 310 307 305 304 304 304 305 306 306 307 308 309 310 311 312 312 314 315 315 316 316 316 317 317 316 315
284 285 286 287 287 287 289 291 295 298 303 307 310 312 314 316 319 321 323 326 328 329 329 326 322 315 310 307 305 304 304 304 305 305 306 307 308 309 310 311 313 314 315 316 316 316 317 318 317 317 316 315
284 285 286 287 287 287 287 289 293 297 301 306 309 312 314 316 318 320 322 324 327 328 327 325 321 316 310 307 305 304 304 304 305 305 306 307 308 309 311 312 314 315 316 317 317 317 318 318 317 317 316 316
283 285 286 288 288 287 286 288 292 296 300 305 308 311 313 315 317 318 320 322 325 326 325 324 321 316 311 307 305 304 304 304 304 305 306 307 309 310 312 313 314 316 317 317 317 318 318 318 318 318 317 317
283 285 286 288 288 286 285 287 291 295 300 303 307 310 312 314 315 316 318 320 323 324 324 323 321 318 313 308 306 304 304 303 304 305 307 309 310 311 312 313 315 317 318 318 318 318 318 318 319 319 319 319
282 284 286 287 287 286 284 286 289 294 299 302 306 309 311 312 313 314 316 318 320 322 324 323 322 319 315 310 306 304 304 304 305 307 308 309 310 311 312 314 316 317 318 318 318 318 318 319 319 320 320 320
282 283 285 286 287 285 284 285 289 293 297 301 304 307 310 311 312 313 315 317 318 321 322 322 321 319 316 312 308 305 305 305 307 308 309 310 311 312 313 316 317 318 318 318 318 318 319 320 320 320 320 320
281 283 284 286 286 284 283 284 288 292 297 300 303 306 309 310 311 312 314 315 317 319 321 321 320 319 317 314 310 308 306 307 307 308 309 310 311 313 315 317 318 318 318 318 319 319 320 320 320 320 320 321
281 282 284 285 285 284 282 283 287 291 295 299 302 305 307 309 310 311 313 314 315 317 319 319 319 318 318 316 313 310 308 307 308 309 310 311 312 314 316 317 317 318 318 318 319 319 320 320 320 320 321 321
280 282 283 284 284 283 282 283 286 290 294 297 301 304 306 308 309 310 312 313 314 315 316 318 318 319 318 317 315 312 309 308 308 309 310 312 313 315 316 317 317 318 318 319 319 319 320 320 321 321 322 322
280 281 282 283 283 283 281 282 285 289 292 296 299 303 305 307 308 309 310 312 312 313 315 316 318 318 318 317 316 314 312 310 309 310 311 313 314 315 316 317 318 318 319 319 320 320 320 321 322 322 322 322
280 281 281 282 283 282 281 282 284 287 291 295 298 302 304 306 307 308 310 311 311 312 313 315 316 317 318 317 316 315 314 312 311 311 312 314 315 316 316 317 318 319 320 320 320 321 321 322 323 323 323 322
280 280 280 281 282 282 281 282 284 286 290 294 297 300 303 305 306 307 309 310 310 311 312 314 315 315 317 317 317 316 315 314 313 313 313 314 315 316 317 318 319 320 320 320 321 322 322 323 323 322 322 323